Regional Weather Roundup
Issued by NWS Boston, MA

Home | Current Version | Previous Version | Text Only | Print | Product List | Glossary On
Versions: 1 2 3 4 5 6 7 8 9 10 11 12 13 14 15 16 17 18 19 20 21 22 23 24 25 26 27 28 29 30 31 32 33 34 35 36 37 38 39 40 41 42 43 44 45 46 47 48 49 50
000
ASUS41 KBOX 031810
RWRBOX

REGIONAL WEATHER ROUNDUP
NATIONAL WEATHER SERVICE TAUNTON MA
200 PM EDT THU SEP 03 2015

NOTE:  "FAIR" INDICATES FEW OR NO CLOUDS BELOW 12,000 FEET WITH NO
SIGNIFICANT WEATHER AND/OR OBSTRUCTIONS TO VISIBILITY.  THE FOLLOWING
OBSERVATION LOCATIONS DO NOT REPORT PRESENT WEATHER...PROVINCETOWN...
SMITHFIELD...BLOCK ISLAND...KEENE...AND OXFORD.

MAZALL-031900-
EASTERN MASSACHUSETTS

CITY           SKY/WX    TMP DP  RH WIND       PRES   REMARKS
BOSTON         MOSUNNY   79  66  64 SE9       29.86S
6HR MIN TEMP:  74; 6HR MAX TEMP:  82;

BEVERLY        MOSUNNY   84  66  54 E8        29.85S
LAWRENCE       SUNNY     87  67  51 VRB5      29.87S HX  90
BEDFORD        PTSUNNY   87  65  47 VRB3      29.83F
BLUE HILL        N/A     84  65  52 VRB7G17   29.87F
NORWOOD        SUNNY     85  67  54 VRB7      29.84F
MARSHFIELD     SUNNY     77  68  73 NE7       29.87S
PLYMOUTH       SUNNY     83  69  62 NE9       29.86S
TAUNTON        MOSUNNY   90  66  45 NW8       29.83S HX  92
NEW BEDFORD    PTSUNNY   86  71  60 SE5       29.83S HX  91
$$

MAZALL-031900-
CAPE COD AND THE ISLANDS

CITY           SKY/WX    TMP DP  RH WIND       PRES   REMARKS
FALMOUTH       MOSUNNY   84  70  61 VRB6      29.84F
HYANNIS        PTSUNNY   83  70  64 S8        29.83F
CHATHAM        SUNNY     82  73  74 VRB5      29.86S
PROVINCETOWN     N/A     75  66  73 N8        29.86S
NANTUCKET        N/A    N/A N/A N/A MISG      29.85F
MARTHAS VNYRD  SUNNY     82  71  69 S12       29.85S
$$

MAZALL-031900-
CENTRAL AND WESTERN MASSACHUSETTS

CITY           SKY/WX    TMP DP  RH WIND       PRES   REMARKS
WORCESTER      SUNNY     83  61  47 VRB7      29.89F
6HR MIN TEMP:  75; 6HR MAX TEMP:  85;

FITCHBURG      SUNNY     88  63  43 SE5       29.86F
ORANGE         MOSUNNY   87  65  47 NW7       29.86F
SPRINGFIELD    MOSUNNY   87  66  50 VRB3      29.84F
WESTFIELD      SUNNY     88  64  44 VRB6      29.85F
NORTH ADAMS    SUNNY     86  69  56 VRB3      29.87F HX  90
PITTSFIELD     SUNNY     85  62  46 VRB3      29.90F
$$

RIZALL-031900-
RHODE ISLAND

CITY           SKY/WX    TMP DP  RH WIND       PRES   REMARKS
PROVIDENCE     PTSUNNY   88  67  49 S7        29.83F HX  91
6HR MIN TEMP:  71; 6HR MAX TEMP:  89;

NEWPORT        SUNNY     84  70  62 S8        29.84F
BLOCK ISLAND   SUNNY     82  72  69 SW9       29.85F
SMITHFIELD     SUNNY     88  64  45 NE5       29.86S
WESTERLY       SUNNY     84  67  56 S8        29.84F
$$

CTZALL-031900-
CONNECTICUT

CITY           SKY/WX    TMP DP  RH WIND       PRES   REMARKS
BRADLEY INTL   MOSUNNY   88  66  48 VRB7      29.84F HX  90
6HR MIN TEMP:  69; 6HR MAX TEMP:  88;

HARTFORD       SUNNY     89  70  53 NW6       29.84F HX  94
BRIDGEPORT     SUNNY     83  69  62 S7        29.84F
DANBURY        SUNNY     88  64  44 N7        29.88F
GROTON         SUNNY     80  71  74 S9        29.83F
NEW HAVEN      MOSUNNY   83  69  62 S7        29.84F
CHESTER        NOT AVBL
MERIDEN        MOSUNNY   90  66  45 CALM      29.83F HX  92
WILLIMANTIC    PTSUNNY   88  66  48 VRB6      29.84F HX  90
OXFORD         MOSUNNY   86  66  51 N10       29.89F HAZE
$$

MEZ002-015-021-024-NHZ003-005-008-011-012-014-VTZ005-008-031900-
NORTHERN NEW ENGLAND

CITY           SKY/WX    TMP DP  RH WIND       PRES   REMARKS
PORTLAND ME    PTSUNNY   82  69  64 E9        29.85S
6HR MIN TEMP:  70; 6HR MAX TEMP:  86;

BANGOR ME      PTSUNNY   85  62  46 N7        29.84F
CONCORD NH     SUNNY     89  65  44 SW6       29.85F HX  91
MANCHESTER NH  MOSUNNY   87  63  44 VRB5      29.83F
NASHUA NH      MOSUNNY   88  65  46 VRB3      29.85F HX  90
PORTSMOUTH NH  PTSUNNY   86  68  54 E8        29.83F
JAFFREY NH     SUNNY     85  64  49 VRB5      29.89F
KEENE NH       SUNNY     86  64  48 NW3       29.86F
BURLINGTON VT  MOSUNNY   84  67  56 NW14      29.91S
MT. WASHINGTON NOT AVBL
$$

NYZ052-076-031900-
EASTERN NEW YORK

CITY           SKY/WX    TMP DP  RH WIND       PRES   REMARKS
ALBANY         PTSUNNY   87  69  54 N5        29.86F HX  91
6HR MIN TEMP:  69; 6HR MAX TEMP:  88;

NEW YORK CITY  PTSUNNY   90  64  42 N5        29.84F HX  91
6HR MIN TEMP:  77; 6HR MAX TEMP:  90;

$$

ANZALL-031900-
MARINE OBSERVATIONS

STATION/POSITION TIME  TEMP    WIND        PRES    VSBY  WAVE
                       AIR SEA DIR/SP/G                  HT/PER
                 (UTC) (F)     (DEG/KT/KT) (MB)    (MI)  (FT/S)
BOSTON BUOY      1750   72 71   90/  4/  4 1011.2F         1
BUZZARDS BAY     1700          230/ 10/ 10 1011.6F
NANTUCKET SOUND  1750   74 74  230/ 10/ 12 1010.5F         1
MASS BAY-STELLWA 1704   71 69   20/  4/  6   N/A    1 7/8  1/ 8
ISLE OF SHOALS   1800   75     130/  6/  6 1010.5F
S OF BLOCK IS    1708      74                N/A           2/ 7
$$

......................KEY.........................
  SKY/WX - SKY CONDITION/PRESENT WEATHER
  TMP    - TEMPERATURE IN FAHRENHEIT
  DWPT   - DEWPOINT IN FAHRENHEIT
  RH     - RELATIVE HUMIDITY IN PERCENT
  WIND   - DIRECTION AND SPEED IN MPH
  PRES   - MEAN SEA LEVEL PRESSURE IN INCHES OF HG
  WCI    - WIND CHILL INDEX
  VSB    - VISIBILITY IN MILES
  HX     - HEAT INDEX
  TC     - TEMPERATURE IN CELSIUS
  VRB    - VARIABLE WIND DIRECTION
  N/A    - NOT AVAILABLE


USA.gov is the U.S. government's official web portal to all federal, state and local government web resources and services.